Find Starlink 33832

NORAD ID: 63637 Int'l Des: 2025-083 Owner: SPXS Country: US Constellation: starlink operational
LEOCIRCULAR

实时位置

正在加载3D地球...

关于 Starlink 33832

正在加载描述...

即将过境

Passes for default location (London). Set your location on the main map for personalized predictions.

高度历史

Loading altitude history...

两行轨道根数

1 63637U 25083D 26125.46558693 .00028592 00000-0 10437-2 0 9998
2 63637 42.9997 44.2591 0002144 279.2428 80.8181 15.27605721 58754
Epoch: May 5, 2026 • Age: 8 hours

当前状态

高度 482.7 km
速度 7.63 km/s
星下点 20.11°N, 85.57°W
发射日期 Apr 25, 2025
运行时间 1 years
类型 internet

技术详情

分类 Payload
质量 575.00 kg
干质量 530.00 kg
总质量 575.00 kg
长度 0.30 m
直径 4.10 m
跨度 29.00 m
形状 Box + pan
制造商 SPXS
平台类型 Starlink V2MO
阶段状态 In Orbit
所有者/国家 SPXS/US

Most Searched